SHIYAN 30 02

基本信息
目录编号:
65852
目录名称:
SHIYAN 30 02
国际标识:
2025-222B
轨道中心:
EARTH
卫星名称:
SHIYAN 30 02
卫星全名:
SHIYAN 30 02
卫星状态:
在轨 (已飞行21 天)
发射日期:
2025-09-29 UTC
国别 :
中国 (CN)
星等 :
--
轨道信息
数据来源 国际轨道数据
星历时间: 2025-10-20T07:15:58+0800
5小时前
查看轨道信息
半长轴: 6966.965km
偏心率: 0.0006367
轨道倾角: 34.997°
近地点辐角 155.876°
升交点赤经 263.542°
平近点角 204.224°
近地点: 584.394km
远地点: 593.266km
周期: 96.455分钟
每日圈数: 14.929227
详细信息
使用方式:
暂无
2D轨道图
3D轨道图
轨道高度分析图
轨道倾角分析图
轨道综合分析图
查看轨道综合分析图